Вернуться в каталог

QPS-SAR-7 TSUKUYOMI-II

АктивенНаукаVLEO
NORAD 59447·PAYLOAD·🇯🇵 Japan

Запущен Apr 7, 2024 с Cape Canaveral Space Force Station

Loading…

Ближайшие Пролёты (ближайшие 24 часа)

TLE

СвежийSource: Space-Track

Эпоха: Sep 14, 2026, 15:35 UTC

1 59447U 24066F   26257.64942140  .00005437  00000-0  34557-3 0  9995
2 59447  45.6026 135.4605 0001045 147.8405 212.2544 15.09895597133743

Отслеживайте QPS-SAR-7 TSUKUYOMI-II в реальном времени с AllMySat

Download on the App Store